When you browse on this site, cookies collect data to enhance your experience and personalize the content and advertising you see.
Visit our Privacy Policy to learn more. By continuing to use the site, you agree to this use of cookies and data.
  • Em Portugal
  • Lista de países
  • Para 7 dias
  • Temperatura da água
  • Mapa do tempo
  • Widgets de tempo
  • user-avatar
    Iniciar Sessão

    Previsão horária em Smirnovka

    Hoje, 29 Maio, Sexta-feira

    Tempo Temperatura Precipitação Vento Pressão Humidade
    00:00 +9°C° 0.1 mm 1 m/s 741 mmHg 80%
    01:00 +9°C° 0.1 mm 1 m/s 741 mmHg 81%
    02:00 +9°C° 0.1 mm 1 m/s 740 mmHg 82%
    03:00 +8°C° 0.1 mm 1 m/s 740 mmHg 83%
    04:00 +9°C° 0 mm 1 m/s 740 mmHg 79%
    05:00 +10°C° 0 mm 1 m/s 740 mmHg 75%
    06:00 +10°C° 0 mm 1 m/s 740 mmHg 71%
    07:00 +12°C° 0.1 mm 1 m/s 740 mmHg 64%
    08:00 +13°C° 0.1 mm 2 m/s 740 mmHg 58%
    09:00 +14°C° 0.1 mm 2 m/s 740 mmHg 51%
    10:00 +15°C° 0.1 mm 2 m/s 740 mmHg 48%
    11:00 +15°C° 0.1 mm 2 m/s 739 mmHg 46%
    12:00 +16°C° 0.1 mm 2 m/s 739 mmHg 43%
    13:00 +16°C° 0 mm 2 m/s 739 mmHg 43%
    14:00 +16°C° 0 mm 1 m/s 738 mmHg 43%
    15:00 +16°C° 0 mm 1 m/s 738 mmHg 43%
    16:00 +16°C° 0 mm 1 m/s 738 mmHg 44%
    17:00 +18°C° 0 mm 1 m/s 738 mmHg 44%
    18:00 +18°C° 0 mm 1 m/s 738 mmHg 45%
    19:00 +15°C° 0 mm 1 m/s 738 mmHg 50%
    20:00 +14°C° 0 mm 2 m/s 738 mmHg 55%
    21:00 +12°C° 0 mm 2 m/s 738 mmHg 59%
    22:00 +10°C° 0 mm 2 m/s 737 mmHg 61%
    23:00 +10°C° 0 mm 2 m/s 737 mmHg 63%

    Amanhã, 30 Maio, Sábado

    Tempo Temperatura Precipitação Vento Pressão Humidade
    00:00 +9°C° 0 mm 2 m/s 737 mmHg 65%
    01:00 +9°C° 0 mm 2 m/s 736 mmHg 66%
    02:00 +9°C° 0 mm 2 m/s 736 mmHg 68%
    03:00 +8°C° 0 mm 2 m/s 735 mmHg 69%
    04:00 +9°C° 0 mm 2 m/s 734 mmHg 68%
    05:00 +9°C° 0 mm 2 m/s 734 mmHg 66%
    06:00 +10°C° 0 mm 2 m/s 733 mmHg 65%
    07:00 +11°C° 0.1 mm 3 m/s 733 mmHg 64%
    08:00 +11°C° 0.1 mm 3 m/s 732 mmHg 63%
    09:00 +12°C° 0.1 mm 4 m/s 732 mmHg 62%
    10:00 +13°C° 0.2 mm 5 m/s 732 mmHg 64%
    11:00 +14°C° 0.2 mm 6 m/s 732 mmHg 65%
    12:00 +15°C° 0.2 mm 7 m/s 732 mmHg 67%
    13:00 +16°C° 0.2 mm 6 m/s 731 mmHg 65%
    14:00 +17°C° 0.2 mm 5 m/s 731 mmHg 63%
    15:00 +17°C° 0.2 mm 5 m/s 731 mmHg 61%
    16:00 +18°C° 0.4 mm 4 m/s 730 mmHg 62%
    17:00 +18°C° 0.4 mm 4 m/s 730 mmHg 64%
    18:00 +18°C° 0.4 mm 4 m/s 730 mmHg 66%
    19:00 +15°C° 0.5 mm 4 m/s 730 mmHg 70%
    20:00 +14°C° 0.5 mm 3 m/s 731 mmHg 74%
    21:00 +12°C° 0.5 mm 3 m/s 731 mmHg 78%
    22:00 +12°C° 0.2 mm 3 m/s 731 mmHg 79%
    23:00 +11°C° 0.2 mm 4 m/s 732 mmHg 79%

    Depois de amanhã, 31 Maio, Domingo

    Tempo Temperatura Precipitação Vento Pressão Humidade
    00:00 +11°C° 0.2 mm 4 m/s 732 mmHg 79%
    01:00 +11°C° 0.1 mm 4 m/s 733 mmHg 79%
    02:00 +11°C° 0.1 mm 4 m/s 733 mmHg 79%
    03:00 +11°C° 0.1 mm 3 m/s 733 mmHg 79%
    04:00 +11°C° 0 mm 4 m/s 733 mmHg 77%
    05:00 +12°C° 0 mm 5 m/s 734 mmHg 74%
    06:00 +11°C° 0 mm 6 m/s 734 mmHg 72%
    07:00 +13°C° 0.1 mm 6 m/s 734 mmHg 66%
    08:00 +15°C° 0.1 mm 6 m/s 734 mmHg 59%
    09:00 +16°C° 0.1 mm 6 m/s 734 mmHg 53%
    10:00 +17°C° 0 mm 6 m/s 733 mmHg 51%
    11:00 +17°C° 0 mm 6 m/s 733 mmHg 48%
    12:00 +19°C° 0 mm 6 m/s 732 mmHg 46%
    13:00 +19°C° 0.2 mm 5 m/s 732 mmHg 49%
    14:00 +19°C° 0.2 mm 4 m/s 732 mmHg 53%
    15:00 +19°C° 0.2 mm 4 m/s 732 mmHg 56%
    16:00 +18°C° 0.3 mm 4 m/s 732 mmHg 60%
    17:00 +17°C° 0.3 mm 4 m/s 732 mmHg 64%
    18:00 +15°C° 0.3 mm 5 m/s 732 mmHg 68%
    19:00 +14°C° 0.1 mm 4 m/s 732 mmHg 69%
    20:00 +14°C° 0.1 mm 4 m/s 732 mmHg 71%
    21:00 +13°C° 0.1 mm 3 m/s 732 mmHg 72%
    22:00 +13°C° 0.3 mm 3 m/s 732 mmHg 76%
    23:00 +12°C° 0.3 mm 3 m/s 732 mmHg 80%

    1 Junho, Segunda-feira

    Tempo Temperatura Precipitação Vento Pressão Humidade
    00:00 +13°C° 0.3 mm 2 m/s 732 mmHg 84%
    01:00 +13°C° 0.8 mm 2 m/s 732 mmHg 86%
    02:00 +12°C° 0.8 mm 1 m/s 732 mmHg 89%
    03:00 +12°C° 0.8 mm 1 m/s 732 mmHg 92%
    04:00 +12°C° 1.3 mm 1 m/s 731 mmHg 92%
    05:00 +11°C° 1.3 mm 1 m/s 731 mmHg 92%
    06:00 +11°C° 1.3 mm 1 m/s 731 mmHg 93%
    07:00 +11°C° 2.3 mm 1 m/s 731 mmHg 93%
    08:00 +11°C° 2.3 mm 1 m/s 730 mmHg 93%
    09:00 +11°C° 2.3 mm 1 m/s 730 mmHg 93%
    10:00 +11°C° 1.6 mm 1 m/s 730 mmHg 92%
    11:00 +11°C° 1.6 mm 1 m/s 730 mmHg 92%
    12:00 +11°C° 1.6 mm 1 m/s 731 mmHg 91%
    13:00 +10°C° 0.3 mm 2 m/s 731 mmHg 92%
    14:00 +10°C° 0.3 mm 2 m/s 731 mmHg 92%
    15:00 +10°C° 0.3 mm 3 m/s 731 mmHg 93%
    16:00 +10°C° 0 mm 3 m/s 731 mmHg 91%
    17:00 +12°C° 0 mm 2 m/s 731 mmHg 89%
    18:00 +12°C° 0 mm 2 m/s 731 mmHg 87%
    19:00 +10°C° 0 mm 2 m/s 731 mmHg 89%
    20:00 +10°C° 0 mm 2 m/s 732 mmHg 91%
    21:00 +10°C° 0 mm 1 m/s 732 mmHg 93%
    22:00 +10°C° 0 mm 1 m/s 732 mmHg 92%
    23:00 +10°C° 0 mm 1 m/s 731 mmHg 92%

    2 Junho, Terça-feira

    Tempo Temperatura Precipitação Vento Pressão Humidade
    00:00 +10°C° 0 mm 1 m/s 731 mmHg 91%
    01:00 +10°C° 0 mm 1 m/s 731 mmHg 91%
    02:00 +10°C° 0 mm 1 m/s 731 mmHg 91%
    03:00 +9°C° 0 mm 1 m/s 730 mmHg 91%
    04:00 +10°C° 0.4 mm 1 m/s 730 mmHg 91%
    05:00 +10°C° 0.4 mm 1 m/s 729 mmHg 90%
    06:00 +10°C° 0.4 mm 1 m/s 729 mmHg 90%
    07:00 +10°C° 3.9 mm 1 m/s 729 mmHg 92%
    08:00 +9°C° 3.9 mm 2 m/s 729 mmHg 94%
    09:00 +9°C° 3.9 mm 2 m/s 729 mmHg 96%
    10:00 +13°C° 0.1 mm 2 m/s 729 mmHg 93%
    11:00 +15°C° 0.1 mm 2 m/s 730 mmHg 90%
    12:00 +17°C° 0.1 mm 2 m/s 730 mmHg 86%
    13:00 +19°C° 0.3 mm 2 m/s 730 mmHg 79%
    14:00 +21°C° 0.3 mm 3 m/s 730 mmHg 73%
    15:00 +24°C° 0.3 mm 3 m/s 730 mmHg 66%
    16:00 +23°C° 0.7 mm 4 m/s 730 mmHg 67%
    17:00 +22°C° 0.7 mm 4 m/s 730 mmHg 69%
    18:00 +22°C° 0.7 mm 5 m/s 730 mmHg 70%
    19:00 +20°C° 0.2 mm 4 m/s 730 mmHg 74%
    20:00 +19°C° 0.2 mm 4 m/s 731 mmHg 78%
    21:00 +17°C° 0.2 mm 4 m/s 731 mmHg 83%
    22:00 +16°C° 0.1 mm 3 m/s 731 mmHg 84%
    23:00 +16°C° 0.1 mm 2 m/s 731 mmHg 85%

    3 Junho, Quarta-feira

    Tempo Temperatura Precipitação Vento Pressão Humidade
    00:00 +15°C° 0.1 mm 2 m/s 731 mmHg 87%
    01:00 +15°C° 0.1 mm 2 m/s 731 mmHg 88%
    02:00 +14°C° 0.1 mm 2 m/s 731 mmHg 89%
    03:00 +14°C° 0.1 mm 1 m/s 730 mmHg 90%
    04:00 +15°C° 0.1 mm 2 m/s 730 mmHg 88%
    05:00 +15°C° 0.1 mm 2 m/s 730 mmHg 87%
    06:00 +16°C° 0.1 mm 2 m/s 730 mmHg 86%
    07:00 +17°C° 0.2 mm 2 m/s 730 mmHg 81%
    08:00 +19°C° 0.2 mm 3 m/s 729 mmHg 77%
    09:00 +20°C° 0.2 mm 4 m/s 729 mmHg 73%
    10:00 +21°C° 0.1 mm 5 m/s 729 mmHg 70%
    11:00 +23°C° 0.1 mm 6 m/s 728 mmHg 66%
    12:00 +24°C° 0.1 mm 8 m/s 728 mmHg 63%
    13:00 +24°C° 0.2 mm 8 m/s 728 mmHg 58%
    14:00 +26°C° 0.2 mm 8 m/s 728 mmHg 54%
    15:00 +26°C° 0.2 mm 8 m/s 729 mmHg 50%
    16:00 +24°C° 0 mm 7 m/s 729 mmHg 54%
    17:00 +23°C° 0 mm 6 m/s 729 mmHg 58%
    18:00 +23°C° 0 mm 5 m/s 729 mmHg 62%
    19:00 +21°C° 0 mm 5 m/s 730 mmHg 57%
    20:00 +19°C° 0 mm 5 m/s 730 mmHg 52%
    21:00 +17°C° 0 mm 4 m/s 731 mmHg 47%
    22:00 +16°C° 0 mm 3 m/s 731 mmHg 52%
    23:00 +15°C° 0 mm 2 m/s 731 mmHg 57%
    Mostrar mais